Погода в Новом Рахино

Россия / Новгородская область     58°08′38″N   32°45′36″E
темп.,
°C
ветер,
м/с
пор.,
м/с
влажн.,
%
обл.,
%
осадки,
мм/ч
давл.,
гПа
погр.,
м
11 мая, вт
вт1100:00+8ююв2680100 0.0 102698
03:00+8ю2577100 0.0 102792
06:00+8ююв2775100 0.0 1027158
09:00+14ю365245 0.0 1028470
12:00+19ю344078 0.0 10271098
15:00+21ююв343923 0.0 10261404
18:00+20юв2550100 0.0 1025449
21:00+13юв37712 0.0 1025117
12 мая, ср
ср1200:00+10юв39770 0.0 1026159
03:00+8юв26824 0.0 102698
06:00+10юв25820 0.0 1027117
09:00+17юв34640 0.0 1026486
12:00+22юв35510 0.0 10251487
15:00+23юв354252 0.0 10232297
18:00+21в3756100 0.0 1021398
21:00+16в311787 0.1 1020337
13 мая, чт
чт1300:00+15в51382100 0.0 1018729
03:00+13юв4119036 0.0 1018692
06:00+10юв410795 0.0 1019528
09:00+14юв59545 0.0 1019826
12:00+18юв6104522 0.0 10172002
15:00+19ююв61042100 0.0 10162238
18:00+17юв4755100 0.0 10141038
21:00+12ююв2375100 0.0 101451
14 мая, пт
пт1400:00+9юв228470 0.0 101428
03:00+8юв22902 0.0 101430
06:00+9юв2783100 0.0 1014188
09:00+16ююв46600 0.0 1014855
12:00+19ююв4644100 0.0 10132023
15:00+20ююв354193 0.0 10131960
18:00+20юв2548100 0.0 10111870
21:00+14юв3888100 0.1 1011294
15 мая, сб
сб1500:00+12вюв389848 0.0 1010196
03:00+11вюв269965 0.0 1010171
06:00+13юв359499 0.0 1009264
09:00+16ююв3579100 0.0 1009598
12:00+21ююз345642 0.0 10081443
15:00+22юз2348100 0.0 10071610
18:00
21:00+14зюз229099 0.1 100713